To modify the report, make a selection from each column below and re-run.

Report Type Graduation Filter Grade Filter Gender

(Grade filter for indiv report.)


Course PR Report: Lacy Park

The report below currently displays:

  • Individual PR's
  • Grads & Current Runners
  • All Grades
  • Girls
  • 3 miles
  • Grads & Current Runners
All Time Rank Runner Name Grad Year Time Pace PR Date PR Event # of
Races
Graph full race
history on course
(pick up to 15)
1 Sydney Morrow 2022 18:48 6:16 9/26/19 Rio Hondo League #1 4
2 Emily Ye 2016 19:10.36 6:23 11/5/15 Rio Hondo League Finals 1
3 Mai Koyama 2022 19:11 6:24 9/26/19 Rio Hondo League #1 4
4 Anika Renken 2013 19:15 6:25 9/23/10 Rio Hondo Cluster #1 2
5 Brooklyn Robinson 2021 19:22.23 6:27 11/2/17 Rio Hondo League Finals 1
6 Maddy Engelsman 2018 19:22.7 6:28 9/22/16 Rio Hondo League #1 5
7 Haena Van Loan 0 19:25 6:28 9/23/10 Rio Hondo Cluster #1 1
8 Bailey Wu 2018 19:30.84 6:30 11/2/17 Rio Hondo League Finals 4
9 Lindsay Michels 2021 19:34 6:31 11/7/19 Rio Hondo League Finals 6
10 Helena Van Loan 2014 19:35 6:32 11/4/10 Rio Hondo League Finals 1
11 Elizabeth Bock 2019 19:35.08 6:32 11/5/15 Rio Hondo League Finals 6
12 Kaylee Anderson 2012 19:48 6:36 9/23/10 Rio Hondo Cluster #1 3
13 Lindsey Calva 2019 19:49.92 6:37 11/2/17 Rio Hondo League Finals 6
14 Maaike Wielenga 2016 19:54.38 6:38 11/5/15 Rio Hondo League Finals 1
15 A.j. Ramirez 0 19:56 6:39 9/23/10 Rio Hondo Cluster #1 1
16 Taci Chin-robinson 2012 20:13 6:44 9/23/10 Rio Hondo Cluster #1 1
17 Nicole Endacott 2011 20:24 6:48 10/15/09 Rio Hondo Cluster #2 1
17 Amelia Jarolim 2021 20:24 6:48 9/26/19 Rio Hondo League #1 6
19 Fiona Bock 2016 20:28.57 6:50 11/5/15 Rio Hondo League Finals 1
20 Jessica Hitchcock 2013 20:34 6:51 9/23/10 Rio Hondo Cluster #1 3
21 Sarah Uriarte 2019 20:34.3 6:51 9/22/16 Rio Hondo League #1 6
22 Lilian Zhu 2022 20:35 6:52 9/26/19 Rio Hondo League #1 4
23 Aj Ramirez 0 20:36 6:52 11/4/10 Rio Hondo League Finals 1
24 Briana Nunez 2016 20:36.03 6:52 11/5/15 Rio Hondo League Finals 1
25 Cece Zhu 2012 20:37 6:52 11/4/10 Rio Hondo League Finals 2
26 Caroline Liu 2018 20:37.64 6:53 11/5/15 Rio Hondo League Finals 5
27 Chaerin Lee 2021 20:41.7 6:54 9/20/18 Rio Hondo League #1 2
28 Taci Chin Robinson 0 20:45 6:55 10/15/09 Rio Hondo Cluster #2 1
29 Celeste Amaya 2018 20:52.87 6:58 9/21/17 Rio Hondo League #1 2
30 Amber Gonzalez Pacheco 2020 20:57.39 6:59 9/21/17 Rio Hondo League #1 7
31 Kerrigan Riley 2022 21:03 7:01 11/7/19 Rio Hondo League Finals 1
32 Aimee Fata 2010 21:06 7:02 10/15/09 Rio Hondo Cluster #2 1
33 Maylis Whetsel 2019 21:10.36 7:03 11/5/15 Rio Hondo League Finals 6
34 Nora Devita 2011 21:17 7:06 10/15/09 Rio Hondo Cluster #2 1
35 Madeline Chin 2013 21:19 7:06 9/23/10 Rio Hondo Cluster #1 3
36 Luyang Zhang 2021 21:21 7:07 9/26/19 Rio Hondo League #1 4
37 Laura Lussier 2012 21:36 7:12 11/4/10 Rio Hondo League Finals 2
38 Quyen Ballagh 2020 21:37.67 7:13 11/2/17 Rio Hondo League Finals 4
39 Katherine Conte 2017 21:42.2 7:14 9/22/16 Rio Hondo League #1 3
40 Miranda Liu 2022 21:43 7:14 9/26/19 Rio Hondo League #1 4
41 Sara Jan 2012 21:50 7:17 11/4/10 Rio Hondo League Finals 3
42 Kate Lee 2020 21:53.49 7:18 11/2/17 Rio Hondo League Finals 4
43 Caroline Liebe 2020 21:59.65 7:20 11/2/17 Rio Hondo League Finals 4
44 Gabriela Rodriguez 2022 22:01 7:20 9/26/19 Rio Hondo League #1 4
45 Camille Endacott 0 22:04 7:21 10/15/09 Rio Hondo Cluster #2 1
46 Maia Thomas 2016 22:04.9 7:22 11/5/15 Rio Hondo League Finals 1
47 Kaile Fernandes 2023 22:13 7:24 9/26/19 Rio Hondo League #1 2
48 Natali Lelieur 2018 22:26.82 7:29 11/2/17 Rio Hondo League Finals 5
49 Carmella Shaffer 2019 22:28.31 7:29 11/5/15 Rio Hondo League Finals 1
50 Kei Shao 2013 22:36 7:32 11/4/10 Rio Hondo League Finals 1
51 Kelly Wu 2021 22:38.19 7:33 11/2/17 Rio Hondo League Finals 3
52 Cindy Chan 2012 22:42 7:34 11/4/10 Rio Hondo League Finals 2
53 Lauren Jones 2021 22:50.11 7:37 11/2/17 Rio Hondo League Finals 3
54 Alana Ballagh 2018 22:50.65 7:37 11/5/15 Rio Hondo League Finals 4
55 Ke Shou 0 22:52 7:37 9/23/10 Rio Hondo Cluster #1 1
55 Romeny White 0 22:52 7:37 9/23/10 Rio Hondo Cluster #1 1
57 Daniella Lat 2023 22:55 7:38 11/7/19 Rio Hondo League Finals 2
58 Jenna J 0 22:56 7:39 9/23/10 Rio Hondo Cluster #1 1
59 Amber Laird 2013 23:15 7:45 11/4/10 Rio Hondo League Finals 2
59 Sarah Kang 2022 23:15 7:45 9/26/19 Rio Hondo League #1 4
61 Amber Lord 0 23:16 7:45 9/23/10 Rio Hondo Cluster #1 1
62 Mallory Downing 0 23:29 7:50 10/15/09 Rio Hondo Cluster #2 1
63 Diana Perea 2022 23:32 7:51 9/26/19 Rio Hondo League #1 4
64 Ashley Moon 2013 23:33 7:51 10/15/09 Rio Hondo Cluster #2 2
65 Remeny White 2014 23:35 7:52 11/4/10 Rio Hondo League Finals 1
66 Sophia Arriola 2014 23:36 7:52 11/4/10 Rio Hondo League Finals 1
67 Maya Gonzalez-Pacheco 2023 23:45 7:55 9/26/19 Rio Hondo League #1 2
68 Sydney Lagarce 2023 23:48 7:56 9/26/19 Rio Hondo League #1 2
69 Sue 0 23:51 7:57 9/23/10 Rio Hondo Cluster #1 1
70 Anastasia Velicescu 0 23:53 7:58 10/15/09 Rio Hondo Cluster #2 1
71 Destiny Rivera 2020 23:54.7 7:58 11/1/18 Rio Hondo League Finals 2
72 Alicia Wilgoren 2023 23:59 8:00 11/7/19 Rio Hondo League Finals 2
73 Kate Feldman 0 24:02 8:01 10/15/09 Rio Hondo Cluster #2 1
74 Lia Lohr 2012 24:11 8:04 10/15/09 Rio Hondo Cluster #2 2
74 Sooji Hong 2012 24:11 8:04 10/15/09 Rio Hondo Cluster #2 1
76 Sophie 0 24:18 8:06 9/23/10 Rio Hondo Cluster #1 1
77 Vesta Javaheri 2013 24:24 8:08 11/4/10 Rio Hondo League Finals 1
78 Dana Lin 2020 24:26.45 8:09 11/3/16 Rio Hondo League Finals 3
79 Unknown 0 24:28 8:09 9/23/10 Rio Hondo Cluster #1 1
80 Jackie Takarabe 2019 24:32.4 8:11 9/22/16 Rio Hondo League #1 1
81 Susan Rodriguez 2018 24:39.76 8:13 11/2/17 Rio Hondo League Finals 4
82 Lauren Sharkey 2018 24:44.4 8:15 9/22/16 Rio Hondo League #1 3
83 Franny Cross 2018 24:47.94 8:16 11/3/16 Rio Hondo League Finals 2
84 Priscilla Hsu 0 25:11 8:24 9/23/10 Rio Hondo Cluster #1 1
85 Isabel Chin 2013 25:22 8:27 11/4/10 Rio Hondo League Finals 2
86 Rachel Lu 2019 25:25.6 8:29 9/22/16 Rio Hondo League #1 1
87 Alyssa Emerich 0 25:29 8:30 10/15/09 Rio Hondo Cluster #2 1
88 Sabrina Sanchez 2014 25:42 8:34 11/4/10 Rio Hondo League Finals 1
88 Ke Shao 2013 25:42 8:34 10/15/09 Rio Hondo Cluster #2 1
90 Pricilla Hur 0 25:48 8:36 11/4/10 Rio Hondo League Finals 1
91 Mackenzie Chang 2013 25:49 8:36 9/23/10 Rio Hondo Cluster #1 3
92 Jessica Prince 0 25:54 8:38 9/23/10 Rio Hondo Cluster #1 1
93 Kathy Liu 0 26:01 8:40 9/23/10 Rio Hondo Cluster #1 1
94 Vanessa Safawi 2021 26:12.85 8:44 11/2/17 Rio Hondo League Finals 2
95 Isabelle Whetsel 2023 26:46 8:55 9/26/19 Rio Hondo League #1 2
96 Helena Fu 2018 26:47.65 8:56 11/3/16 Rio Hondo League Finals 2
97 Tiffany Show 2012 26:52 8:57 9/23/10 Rio Hondo Cluster #1 3
98 Alaska Romero 2019 26:58.49 8:59 9/21/17 Rio Hondo League #1 1
99 Amber Chen 2022 27:07.9 9:03 11/1/18 Rio Hondo League Finals 2
100 Lily Dorn 2012 27:14 9:05 10/15/09 Rio Hondo Cluster #2 1
101 Hannah Bae 2022 27:23 9:08 11/7/19 Rio Hondo League Finals 1
102 Diana Kim 2012 27:36 9:12 11/4/10 Rio Hondo League Finals 1
103 June Kim 2013 28:01 9:20 11/4/10 Rio Hondo League Finals 1
104 Kathy Lui 2014 28:40 9:33 11/4/10 Rio Hondo League Finals 1
105 Asha Quibilan 2023 29:09 9:43 9/26/19 Rio Hondo League #1 2
106 Nicole Jimenez 2020 29:27.81 9:49 11/3/16 Rio Hondo League Finals 1
107 Keren Im 2012 30:15 10:05 10/15/09 Rio Hondo Cluster #2 1
108 Oi man Chiu 0 30:27 10:09 11/4/10 Rio Hondo League Finals 1
108 Jillian Goldstein 2022 30:27 10:09 9/26/19 Rio Hondo League #1 2
110 Kiera Atkinson 2021 30:47 10:16 11/7/19 Rio Hondo League Finals 2
111 Vivian 0 31:07 10:22 9/23/10 Rio Hondo Cluster #1 1
112 Bela Salazar 2022 33:42 11:14 11/7/19 Rio Hondo League Finals 1
113 Sora Abu Karash 2021 33:49.21 11:16 9/21/17 Rio Hondo League #1 1
114 sabrina torres 2019 33:52.33 11:17 9/21/17 Rio Hondo League #1 1
All Time Rank Runner Name Grad Year Time Pace PR Date PR Event # of
Races
Graph full race
history on course
(pick up to 7)

Note: All columns are sortable by clicking on the column heading.